GW3801 Weather Reports


time (UTC)temp
F
wind
direction
speed
knots
gust
knots
rain 1hr
in
rain 24hr
in
rain mn
in
humidity
%
barometer
mb
20260505140530 72 249 1.7 1.7 0.00 0.00 0.00 66 1019.8
20260505124943 65 292 1.7 1.7 0.00 0.00 0.00 76 1020.4
20260505124440 65 128 1.7 1.7 0.00 0.00 0.00 75 1020.2
20260505123936 65 223 1.7 2.6 0.00 0.00 0.00 77 1020.1
20260505123433 64 261 1.7 2.6 0.00 0.00 0.00 78 1020.1
20260505122929 64 163 0.9 1.7 0.00 0.00 0.00 77 1020.1
20260505122427 64 93 0.0 0.9 0.00 0.00 0.00 78 1020.2
20260505121923 63 147 0.9 0.9 0.00 0.00 0.00 80 1020.3
20260505121420 63 263 0.9 0.9 0.00 0.00 0.00 79 1020.1
20260505120916 63 179 1.7 1.7 0.00 0.00 0.00 80 1020.2
20260505120412 62 254 0.9 0.9 0.00 0.00 0.00 79 1020.0
20260505115911 61 175 0.9 0.9 0.00 0.00 0.00 82 1019.9
20260505115408 61 204 0.9 0.9 0.00 0.00 0.00 82 1020.0
20260505114906 60 147 0.0 0.0 0.00 0.00 0.00 83 1020.0
20260505114402 59 163 1.7 1.7 0.00 0.00 0.00 84 1019.9
20260505113859 59 160 0.9 1.7 0.00 0.00 0.00 84 1019.8
20260505113355 58 153 0.9 0.9 0.00 0.00 0.00 85 1019.6
20260505112851 58 144 0.9 0.9 0.00 0.00 0.00 85 1019.7
20260505112349 57 154 0.9 0.9 0.00 0.00 0.00 86 1019.8
20260505111845 57 160 0.9 1.7 0.00 0.00 0.00 86 1019.7
20260505111340 57 133 0.0 0.9 0.00 0.00 0.00 87 1019.6
20260505110836 56 152 0.0 0.9 0.00 0.00 0.00 88 1019.5
20260505110334 55 160 0.9 0.9 0.00 0.00 0.00 89 1019.6
20260505101809 51 255 0.0 0.0 0.00 0.00 0.00 95 1019.0
20260505101304 51 255 0.0 0.0 0.00 0.00 0.00 95 1018.9
20260505100800 52 255 0.0 0.0 0.00 0.00 0.00 94 1018.8
20260505100257 51 255 0.0 0.0 0.00 0.00 0.00 94 1018.7
20260505095753 51 255 0.0 0.0 0.00 0.00 0.00 94 1018.8
20260505095251 51 255 0.0 0.0 0.00 0.00 0.00 94 1018.6
20260505094746 52 255 0.0 0.0 0.00 0.00 0.00 93 1018.5
20260505094243 52 255 0.0 0.0 0.00 0.00 0.00 93 1018.7
20260505093739 52 255 0.0 0.0 0.00 0.00 0.00 93 1018.6
20260505093237 53 255 0.0 0.0 0.00 0.00 0.00 92 1018.5
20260505092733 53 255 0.0 0.0 0.00 0.00 0.00 91 1018.6
20260505092232 53 255 0.0 0.0 0.00 0.00 0.00 91 1018.5
20260505091729 53 255 0.0 0.0 0.00 0.00 0.00 91 1018.5
20260505091227 53 255 0.0 0.0 0.00 0.00 0.00 91 1018.4
20260505090724 54 255 0.0 0.0 0.00 0.00 0.00 90 1018.4
20260505090222 54 255 0.0 0.0 0.00 0.00 0.00 90 1018.4
20260505085719 54 255 0.0 0.0 0.00 0.00 0.00 90 1018.4
20260505085218 54 256 0.0 0.0 0.00 0.00 0.00 90 1018.3
20260505084714 54 256 0.0 0.0 0.00 0.00 0.00 89 1018.4
20260505084214 54 266 0.0 0.0 0.00 0.00 0.00 89 1018.0
20260505083710 55 266 0.0 0.0 0.00 0.00 0.00 88 1018.1
20260505083207 55 266 0.0 0.0 0.00 0.00 0.00 87 1018.1
20260505082702 55 266 0.0 0.0 0.00 0.00 0.00 86 1018.1
20260505082200 55 266 0.0 0.0 0.00 0.00 0.00 86 1018.2
20260505081655 55 266 0.0 0.0 0.00 0.00 0.00 86 1018.0
20260505081153 55 265 0.0 0.0 0.00 0.00 0.00 86 1018.1
20260505080650 55 267 0.0 0.0 0.00 0.00 0.00 85 1018.1
20260505080146 56 267 0.0 0.0 0.00 0.00 0.00 85 1018.0
20260505075642 56 267 0.0 0.0 0.00 0.00 0.00 85 1017.9
20260505075139 56 267 0.0 0.0 0.00 0.00 0.00 84 1018.0
20260505074636 56 267 0.0 0.0 0.00 0.00 0.00 84 1018.1
20260505074133 56 267 0.0 0.0 0.00 0.00 0.00 83 1017.7
20260505073631 56 268 0.0 0.0 0.00 0.00 0.00 83 1018.1
20260505073129 57 263 0.0 0.0 0.00 0.00 0.00 83 1018.0
20260505072624 56 255 0.0 0.0 0.00 0.00 0.00 83 1018.1
20260505072121 57 255 0.0 0.0 0.00 0.00 0.00 82 1017.9
20260505071616 57 256 0.0 0.0 0.00 0.00 0.00 82 1017.9
20260505071115 57 256 0.0 0.0 0.00 0.00 0.00 81 1017.9
20260505070612 57 260 0.0 0.0 0.00 0.00 0.00 81 1017.9
20260505070108 57 261 0.0 0.0 0.00 0.00 0.00 81 1017.8
20260505065604 57 291 0.0 0.0 0.00 0.00 0.00 80 1017.7
20260505065100 57 276 0.0 0.0 0.00 0.00 0.00 80 1017.7
20260505064557 57 250 0.0 0.9 0.00 0.00 0.00 80 1017.7
20260505064056 57 118 0.0 0.0 0.00 0.00 0.00 80 1017.9
20260505063553 58 243 0.0 0.0 0.00 0.00 0.00 79 1017.7
20260505063048 58 239 0.0 0.0 0.00 0.00 0.00 79 1018.0
20260505062545 58 241 0.0 0.0 0.00 0.00 0.00 78 1018.1
20260505062042 58 249 0.0 0.0 0.00 0.00 0.00 78 1017.9
20260505061540 59 249 0.9 0.9 0.00 0.00 0.00 77 1017.9
20260505061038 59 249 0.9 0.9 0.00 0.00 0.00 77 1017.9
20260505060535 59 232 0.0 0.0 0.00 0.00 0.00 77 1018.1
20260505060031 59 273 0.0 0.0 0.00 0.00 0.00 77 1018.0
20260505055527 59 269 0.0 0.0 0.00 0.00 0.00 77 1018.1
20260505055024 59 295 0.0 0.0 0.00 0.00 0.00 76 1018.0
20260505054521 59 284 0.0 0.9 0.00 0.00 0.00 76 1018.3
20260505054019 59 185 0.0 0.0 0.00 0.00 0.00 76 1018.2
20260505053516 59 197 0.0 0.0 0.00 0.00 0.00 76 1018.0
20260505053013 59 288 0.0 0.0 0.00 0.00 0.00 76 1018.4
20260505052510 59 214 0.9 0.9 0.00 0.00 0.00 76 1018.3
20260505052007 60 255 0.0 0.0 0.00 0.00 0.00 75 1018.3
20260505051504 60 255 0.0 0.0 0.00 0.00 0.00 75 1018.4
20260505051002 60 259 0.0 0.0 0.00 0.00 0.00 74 1018.5
20260505050500 60 298 0.0 0.0 0.00 0.00 0.00 74 1018.4
20260505041427 62 170 0.9 0.9 0.00 0.00 0.00 71 1018.2
20260505040924 62 163 2.6 3.5 0.00 0.00 0.00 71 1018.3
20260505040422 62 199 0.0 0.0 0.00 0.00 0.00 71 1018.3
20260505035918 62 138 1.7 1.7 0.00 0.00 0.00 70 1018.4
20260505035415 62 272 0.9 1.7 0.00 0.00 0.00 71 1018.1
20260505034912 62 306 0.9 2.6 0.00 0.00 0.00 70 1018.2
20260505034408 62 167 1.7 2.6 0.00 0.00 0.00 70 1018.3
20260505033906 62 66 0.0 0.9 0.00 0.00 0.00 70 1018.2
20260505033402 62 266 0.9 1.7 0.00 0.00 0.00 70 1018.1
20260505032901 62 232 0.9 0.9 0.00 0.00 0.00 70 1018.2
20260505032357 63 155 1.7 2.6 0.00 0.00 0.00 70 1018.3
20260505031854 63 229 1.7 1.7 0.00 0.00 0.00 69 1018.3
20260505031351 63 176 0.0 0.9 0.00 0.00 0.00 69 1018.2
20260505030848 63 260 0.9 1.7 0.00 0.00 0.00 69 1018.3
20260505030343 63 167 1.7 1.7 0.00 0.00 0.00 69 1018.2
20260505025839 63 280 0.9 0.9 0.00 0.00 0.00 69 1018.4
20260505025337 63 177 1.7 1.7 0.00 0.00 0.00 69 1018.2
20260505024836 64 177 1.7 2.6 0.00 0.00 0.00 69 1018.5
20260505024333 63 216 0.9 0.9 0.00 0.00 0.00 69 1018.3
20260505023830 63 168 0.9 1.7 0.00 0.00 0.00 69 1018.4
20260505023326 64 231 0.0 0.9 0.00 0.00 0.00 69 1018.4
20260505022824 64 153 0.9 1.7 0.00 0.00 0.00 69 1018.3
20260505022321 64 228 0.9 1.7 0.00 0.00 0.00 69 1018.3
20260505021818 64 185 0.9 0.9 0.00 0.00 0.00 68 1018.2
20260505021315 64 206 1.7 1.7 0.00 0.00 0.00 68 1018.1
20260505020810 64 163 0.9 1.7 0.00 0.00 0.00 68 1018.2
20260505020306 64 97 1.7 1.7 0.00 0.00 0.00 68 1018.0
20260505015803 65 284 0.9 1.7 0.00 0.00 0.00 67 1018.1
20260505015300 65 154 1.7 2.6 0.00 0.00 0.00 67 1018.2
20260505014758 65 340 1.7 2.6 0.00 0.00 0.00 67 1017.9
20260505014255 65 232 1.7 2.6 0.00 0.00 0.00 66 1017.9
20260505013751 65 276 1.7 1.7 0.00 0.00 0.00 66 1018.0
20260505013248 65 175 1.7 1.7 0.00 0.00 0.00 66 1017.9
20260505012746 66 148 1.7 2.6 0.00 0.00 0.00 65 1017.9
20260505012243 66 210 1.7 1.7 0.00 0.00 0.00 65 1017.8
20260505011739 66 240 0.9 1.7 0.00 0.00 0.00 65 1017.8
20260505011236 66 304 0.9 0.9 0.00 0.00 0.00 65 1017.6
20260505010732 66 252 1.7 1.7 0.00 0.00 0.00 64 1017.5
20260505010228 66 133 1.7 1.7 0.00 0.00 0.00 63 1017.5
20260505005725 66 235 0.9 0.9 0.00 0.00 0.00 63 1017.5
20260505005222 67 176 0.9 1.7 0.00 0.00 0.00 63 1017.2
20260505004719 67 170 0.9 1.7 0.00 0.00 0.00 62 1017.4
20260505004215 67 238 1.7 2.6 0.00 0.00 0.00 62 1017.2
20260505003713 67 122 2.6 3.5 0.00 0.00 0.00 61 1017.1
20260505003211 67 202 3.5 5.2 0.00 0.00 0.00 61 1017.0
20260505002707 68 180 1.7 1.7 0.00 0.00 0.00 60 1017.0
20260505002204 68 161 2.6 2.6 0.00 0.00 0.00 59 1016.8
20260505001701 68 164 1.7 3.5 0.00 0.00 0.00 59 1016.9
20260505001159 68 166 2.6 3.5 0.00 0.00 0.00 58 1016.8
20260505000656 68 224 1.7 1.7 0.00 0.00 0.00 58 1016.7
20260505000154 69 133 0.9 1.7 0.00 0.00 0.00 57 1016.5
20260504235649 69 153 1.7 1.7 0.00 0.00 0.00 57 1016.7
20260504235146 69 211 1.7 1.7 0.00 0.00 0.00 57 1016.5
20260504234644 69 298 1.7 2.6 0.00 0.00 0.00 57 1016.5
20260504234141 70 232 2.6 2.6 0.00 0.00 0.00 57 1016.4
20260504233636 70 150 1.7 2.6 0.00 0.00 0.00 56 1016.6
20260504233132 70 173 1.7 3.5 0.00 0.00 0.00 56 1016.4
20260504232631 70 184 1.7 2.6 0.00 0.00 0.00 56 1016.3
20260504232127 71 153 3.5 6.1 0.00 0.00 0.00 56 1016.3
20260504231624 71 144 0.9 1.7 0.00 0.00 0.00 57 1016.3
20260504231120 72 166 1.7 2.6 0.00 0.00 0.00 56 1016.1
20260504230616 72 189 1.7 2.6 0.00 0.00 0.00 56 1016.3
20260504230115 72 154 0.9 0.9 0.00 0.00 0.00 56 1016.0
20260504225613 73 175 0.9 0.9 0.00 0.00 0.00 56 1016.2
20260504225109 73 59 1.7 5.2 0.00 0.00 0.00 55 1016.0
20260504224606 73 152 5.2 7.8 0.00 0.00 0.00 55 1016.0
20260504224103 73 217 0.9 0.9 0.00 0.00 0.00 55 1016.1
20260504223600 74 224 3.5 3.5 0.00 0.00 0.00 54 1015.8
20260504223055 74 286 2.6 3.5 0.00 0.00 0.00 54 1015.7
20260504222553 74 251 4.3 7.8 0.00 0.00 0.00 54 1016.0
20260504222050 74 207 1.7 2.6 0.00 0.00 0.00 54 1015.9
20260504221547 75 159 1.7 3.5 0.00 0.00 0.00 53 1015.8
20260504221044 75 216 1.7 2.6 0.00 0.00 0.00 54 1016.1
20260504220540 75 184 2.6 5.2 0.00 0.00 0.00 54 1015.9
20260504220037 75 232 1.7 2.6 0.00 0.00 0.00 53 1016.0
20260504215534 75 259 1.7 2.6 0.00 0.00 0.00 53 1016.0
20260504215031 75 202 3.5 5.2 0.00 0.00 0.00 53 1015.9
20260504214527 76 130 1.7 2.6 0.00 0.00 0.00 53 1015.8
20260504214024 77 172 1.7 1.7 0.00 0.00 0.00 50 1015.9
20260504213521 77 182 3.5 5.2 0.00 0.00 0.00 38 1015.7
20260504213018 77 262 0.9 1.7 0.00 0.00 0.00 38 1015.9
20260504212513 77 234 1.7 2.6 0.00 0.00 0.00 37 1015.7
20260504212011 78 242 3.5 5.2 0.00 0.00 0.00 37 1015.7
20260504211508 77 293 0.9 1.7 0.00 0.00 0.00 36 1015.7
20260504211005 78 260 2.6 3.5 0.00 0.00 0.00 37 1015.7
20260504210502 78 161 1.7 2.6 0.00 0.00 0.00 37 1015.8
20260504205958 78 229 3.5 7.0 0.00 0.00 0.00 36 1015.8
20260504205456 78 65 1.7 2.6 0.00 0.00 0.00 37 1015.8
20260504204954 78 296 1.7 1.7 0.00 0.00 0.00 38 1015.9
20260504204452 78 161 1.7 2.6 0.00 0.00 0.00 38 1015.8
20260504203951 77 325 0.9 0.9 0.00 0.00 0.00 38 1016.0
20260504203448 77 169 4.3 5.2 0.00 0.00 0.00 37 1015.8
20260504202944 78 229 6.1 7.0 0.00 0.00 0.00 35 1015.9
20260504202441 78 244 0.9 1.7 0.00 0.00 0.00 36 1016.2
20260504201937 78 259 1.7 1.7 0.00 0.00 0.00 36 1015.9
20260504201435 78 299 0.0 0.9 0.00 0.00 0.00 39 1016.1
20260504200932 78 216 1.7 1.7 0.00 0.00 0.00 37 1016.2
20260504200429 77 242 1.7 2.6 0.00 0.00 0.00 36 1016.1
20260504195926 77 208 1.7 2.6 0.00 0.00 0.00 37 1016.3
20260504195421 78 165 1.7 2.6 0.00 0.00 0.00 39 1016.3
20260504194918 78 227 0.9 1.7 0.00 0.00 0.00 38 1016.3
20260504194414 77 237 3.5 5.2 0.00 0.00 0.00 37 1016.6
20260504193910 77 277 2.6 2.6 0.00 0.00 0.00 39 1016.5
20260504193408 77 245 1.7 1.7 0.00 0.00 0.00 40 1016.7
20260504192906 77 245 1.7 1.7 0.00 0.00 0.00 37 1016.7
20260504192403 77 249 2.6 2.6 0.00 0.00 0.00 37 1016.6
20260504191902 77 249 3.5 5.2 0.00 0.00 0.00 39 1016.7
20260504191400 77 287 1.7 1.7 0.00 0.00 0.00 38 1016.7
20260504190855 78 201 0.9 0.9 0.00 0.00 0.00 37 1016.6
20260504190351 77 276 1.7 2.6 0.00 0.00 0.00 38 1016.8
20260504185848 77 278 1.7 1.7 0.00 0.00 0.00 38 1017.1
20260504185345 77 167 3.5 6.1 0.00 0.00 0.00 38 1017.0
20260504184841 77 304 1.7 1.7 0.00 0.00 0.00 36 1017.2
20260504184337 77 326 1.7 2.6 0.00 0.00 0.00 37 1017.1
20260504183832 77 252 1.7 2.6 0.00 0.00 0.00 39 1017.1
20260504183330 77 229 2.6 3.5 0.00 0.00 0.00 38 1017.1
20260504182828 76 156 1.7 3.5 0.00 0.00 0.00 39 1017.2
20260504182325 76 153 1.7 2.6 0.00 0.00 0.00 40 1017.4
20260504181822 77 227 0.9 1.7 0.00 0.00 0.00 39 1017.5
20260504181319 76 173 1.7 2.6 0.00 0.00 0.00 42 1017.5
20260504180818 77 228 1.7 6.1 0.00 0.00 0.00 39 1017.4
20260504180316 76 269 2.6 2.6 0.00 0.00 0.00 40 1017.5
20260504175814 76 314 0.0 0.9 0.00 0.00 0.00 40 1017.7
20260504175310 76 139 0.9 0.9 0.00 0.00 0.00 43 1017.6
20260504174809 77 241 3.5 5.2 0.00 0.00 0.00 38 1017.8
20260504174306 76 289 0.9 0.9 0.00 0.00 0.00 42 1017.8
20260504173802 75 285 3.5 5.2 0.00 0.00 0.00 41 1017.7
20260504173259 76 289 1.7 2.6 0.00 0.00 0.00 41 1017.9
20260504172756 75 293 0.9 0.9 0.00 0.00 0.00 44 1018.1
20260504172253 76 236 3.5 5.2 0.00 0.00 0.00 41 1018.0
20260504171748 75 282 0.9 1.7 0.00 0.00 0.00 44 1018.0
20260504171246 76 301 0.9 1.7 0.00 0.00 0.00 45 1018.4
20260504170743 75 287 0.9 0.9 0.00 0.00 0.00 43 1018.1
20260504170240 74 128 3.5 6.1 0.00 0.00 0.00 42 1018.1
20260504160158 73 304 1.7 2.6 0.00 0.00 0.00 50 1018.8
20260504151126 71 194 1.7 2.6 0.00 0.00 0.00 52 1019.1
20260504150624 72 252 3.5 5.2 0.00 0.00 0.00 55 1019.3
20260504150120 72 263 2.6 3.5 0.00 0.00 0.00 55 1019.1